W5IM Weather Reports


time (UTC)temp
F
wind
direction
speed
knots
gust
knots
rain 1hr
in
rain 24hr
in
rain mn
in
humidity
%
barometer
mb
20260510164019 84 130 7.0 11.3 0.00 0.00 0.00 70 1011.7
20260510163018 84 118 7.8 11.3 0.00 0.00 0.00 70 1011.7
20260510162518 83 115 7.8 11.3 0.00 0.00 0.00 72 1011.8
20260510162018 83 93 5.2 10.4 0.00 0.00 0.00 73 1011.9
20260510161018 82 135 7.0 10.4 0.00 0.00 0.00 74 1011.9
20260510160518 82 147 7.0 11.3 0.00 0.00 0.00 75 1011.9
20260510160018 81 168 5.2 8.7 0.00 0.00 0.00 78 1011.8
20260510155518 81 132 6.1 8.7 0.00 0.00 0.00 78 1011.9
20260510155018 81 149 7.8 10.4 0.00 0.00 0.00 77 1011.9
20260510154517 82 130 7.0 8.7 0.00 0.00 0.00 77 1011.8
20260510154018 81 132 7.8 12.2 0.00 0.00 0.00 76 1011.8
20260510153518 81 130 7.0 10.4 0.00 0.00 0.00 77 1011.7
20260510152518 80 156 5.2 8.7 0.00 0.00 0.00 81 1011.8
20260510152019 80 160 5.2 10.4 0.00 0.00 0.00 81 1011.7
20260510151018 80 154 5.2 7.8 0.00 0.00 0.00 83 1011.7
20260510150518 80 156 4.3 7.8 0.00 0.00 0.00 83 1011.7
20260510150018 79 189 4.3 7.0 0.00 0.00 0.00 83 1011.7
20260510145518 79 152 4.3 6.1 0.00 0.00 0.00 83 1011.7
20260510145018 79 179 4.3 5.2 0.00 0.00 0.00 83 1011.7
20260510144517 79 181 3.5 5.2 0.00 0.00 0.00 83 1011.7
20260510144018 79 187 2.6 5.2 0.00 0.00 0.00 84 1011.7
20260510143518 79 185 2.6 6.1 0.00 0.00 0.00 84 1011.7
20260510143018 79 174 1.7 4.3 0.00 0.00 0.00 85 1011.7
20260510142018 78 189 2.6 6.1 0.00 0.00 0.00 86 1011.6
20260510141518 78 197 2.6 7.0 0.00 0.00 0.00 86 1011.5
20260510141018 78 218 2.6 5.2 0.00 0.00 0.00 86 1011.4
20260510140517 78 173 1.7 2.6 0.00 0.00 0.00 86 1011.4
20260510140017 78 168 1.7 4.3 0.00 0.00 0.00 87 1011.3
20260510135518 78 224 1.7 2.6 0.00 0.00 0.00 87 1011.2
20260510135018 78 211 2.6 5.2 0.00 0.00 0.00 87 1011.1
20260510134518 77 204 4.3 6.1 0.00 0.00 0.00 88 1011.0
20260510133018 76 184 2.6 5.2 0.00 0.00 0.00 92 1011.1
20260510132517 76 163 2.6 6.1 0.00 0.00 0.00 93 1011.0
20260510132018 76 165 4.3 6.1 0.00 0.00 0.00 94 1010.8
20260510131518 76 170 1.7 4.3 0.00 0.00 0.00 94 1010.7
20260510131018 75 174 1.7 4.3 0.00 0.00 0.00 94 1010.7
20260510130518 75 178 1.7 4.3 0.00 0.00 0.00 94 1010.6
20260510130017 75 192 1.7 2.6 0.00 0.00 0.00 94 1010.6
20260510124517 75 188 2.6 4.3 0.00 0.00 0.00 95 1010.3
20260510124017 75 165 2.6 2.6 0.00 0.00 0.00 95 1010.3
20260510123518 75 164 1.7 2.6 0.00 0.00 0.00 95 1010.2
20260510123017 75 201 1.7 4.3 0.00 0.00 0.00 95 1010.0
20260510121518 75 171 2.6 4.3 0.00 0.00 0.00 95 1010.0
20260510121018 74 156 4.3 6.1 0.00 0.00 0.00 95 1010.1
20260510120018 74 138 2.6 5.2 0.00 0.00 0.00 95 1010.0
20260510115517 75 149 2.6 4.3 0.00 0.00 0.00 95 1010.1
20260510115018 74 144 4.3 5.2 0.00 0.00 0.00 95 1010.1
20260510114018 74 103 0.0 0.9 0.00 0.00 0.00 95 1010.0
20260510112518 74 178 0.9 2.6 0.00 0.00 0.00 95 1010.0
20260510112018 74 174 0.0 1.7 0.00 0.00 0.00 95 1009.9
20260510111018 74 203 1.7 2.6 0.00 0.01 0.00 95 1009.9
20260510110518 75 205 1.7 2.6 0.00 0.01 0.00 95 1010.0
20260510105517 75 185 2.6 5.2 0.00 0.03 0.00 94 1010.0
20260510105017 75 187 1.7 4.3 0.00 0.04 0.00 94 1010.0
20260510104517 75 173 2.6 5.2 0.00 0.05 0.00 94 1010.0
20260510104017 75 185 1.7 2.6 0.00 0.06 0.00 94 1009.9
20260510103518 75 154 1.7 4.3 0.00 0.06 0.00 94 1009.9
20260510103019 75 161 3.5 5.2 0.00 0.08 0.00 94 1009.9
20260510102518 75 165 2.6 4.3 0.00 0.09 0.00 94 1009.9
20260510102017 75 150 2.6 4.3 0.00 0.11 0.00 94 1009.9
20260510101517 75 161 3.5 5.2 0.00 0.12 0.00 94 1010.0
20260510101018 75 170 4.3 6.1 0.00 0.14 0.00 94 1010.0
20260510100018 75 174 1.7 5.2 0.00 0.16 0.00 94 1010.1
20260510095517 75 172 2.6 6.1 0.00 0.18 0.00 94 1010.1
20260510095018 74 165 4.3 6.1 0.00 0.19 0.00 94 1010.1
20260510094023 74 178 1.7 4.3 0.00 0.20 0.00 94 1010.0
20260510093518 74 178 1.7 4.3 0.00 0.21 0.00 94 1010.0
20260510092017 73 188 1.7 2.6 0.00 0.22 0.00 94 1009.9
20260510091517 73 184 1.7 4.3 0.00 0.22 0.00 94 1010.0
20260510090517 73 161 2.6 5.2 0.00 0.22 0.00 94 1009.9
20260510090017 73 170 2.6 4.3 0.00 0.22 0.00 94 1009.8
20260510085518 73 186 2.6 4.3 0.00 0.22 0.00 93 1009.8
20260510085018 73 172 1.7 2.6 0.00 0.22 0.00 93 1009.8
20260510084517 73 151 1.7 2.6 0.00 0.22 0.00 93 1009.9
20260510084017 73 167 1.7 4.3 0.00 0.22 0.00 93 1009.9
20260510083518 73 180 2.6 5.2 0.00 0.22 0.00 93 1009.8
20260510083017 73 192 4.3 6.1 0.00 0.22 0.00 93 1009.8
20260510082018 73 198 4.3 6.1 0.00 0.22 0.00 93 1009.9
20260510081517 72 198 4.3 6.1 0.00 0.22 0.00 93 1009.9
20260510081018 72 191 2.6 5.2 0.00 0.22 0.00 92 1010.0
20260510080518 72 184 2.6 5.2 0.00 0.22 0.00 91 1010.0
20260510080017 72 169 2.6 5.2 0.00 0.22 0.00 91 1009.9
20260510075517 72 175 1.7 2.6 0.00 0.22 0.00 91 1009.9
20260510075017 72 178 2.6 5.2 0.00 0.22 0.00 91 1009.8
20260510074517 72 214 4.3 6.1 0.00 0.22 0.00 91 1009.8
20260510074017 72 222 2.6 4.3 0.00 0.22 0.00 90 1009.8
20260510073017 72 223 2.6 5.2 0.00 0.22 0.00 90 1009.9
20260510072517 72 217 4.3 5.2 0.00 0.22 0.00 90 1009.9
20260510072018 72 207 2.6 4.3 0.00 0.22 0.00 90 1009.9
20260510071517 72 193 1.7 2.6 0.00 0.22 0.00 89 1010.0
20260510071017 72 171 1.7 4.3 0.00 0.22 0.00 89 1010.0
20260510070517 72 194 2.6 2.6 0.00 0.22 0.00 89 1010.0
20260510070018 72 182 1.7 4.3 0.00 0.22 0.00 89 1010.2
20260510065018 72 171 1.7 2.6 0.00 0.22 0.00 88 1010.2
20260510064517 72 176 2.6 5.2 0.00 0.22 0.00 88 1010.3
20260510063517 72 139 2.6 2.6 0.00 0.22 0.00 86 1010.2
20260510063018 72 192 1.7 2.6 0.00 0.22 0.00 86 1010.1
20260510062518 72 161 2.6 4.3 0.00 0.22 0.00 86 1010.3
20260510062018 73 157 2.6 4.3 0.00 0.22 0.00 86 1010.3
20260510061521 73 157 4.3 5.2 0.00 0.22 0.00 86 1010.3
20260510061017 73 148 3.5 5.2 0.00 0.22 0.00 86 1010.4
20260510060517 73 123 4.3 5.2 0.00 0.22 0.00 86 1010.3
20260510060016 73 161 4.3 6.1 0.00 0.22 0.00 85 1010.2
20260510055518 73 154 4.3 6.1 0.00 0.22 0.00 85 1010.3
20260510055018 73 156 3.5 4.3 0.00 0.22 0.00 83 1010.2
20260510054517 73 190 2.6 5.2 0.00 0.22 0.00 83 1010.1
20260510054017 73 205 4.3 5.2 0.00 0.22 0.00 83 1010.0
20260510053018 74 208 2.6 4.3 0.00 0.22 0.00 83 1010.1
20260510052517 74 156 2.6 4.3 0.00 0.22 0.00 83 1010.1
20260510052018 74 184 2.6 5.2 0.00 0.22 0.00 82 1010.0
20260510051018 74 141 1.7 1.7 0.00 0.22 0.00 82 1010.0
20260510050518 74 158 0.9 2.6 0.00 0.22 0.00 82 1009.9
20260510050017 74 199 2.6 5.2 0.00 0.22 0.00 82 844.7
20260510045517 74 211 4.3 5.2 0.00 0.22 0.22 82 1009.7
20260510045017 75 210 2.6 4.3 0.00 0.22 0.22 81 1009.8
20260510044519 75 188 1.7 4.3 0.00 0.22 0.22 80 1009.7
20260510044017 75 204 2.6 2.6 0.00 0.22 0.22 80 1009.7
20260510043017 76 191 2.6 4.3 0.00 0.22 0.22 79 1009.8
20260510042517 76 199 1.7 5.2 0.00 0.22 0.22 79 1009.8
20260510042018 76 195 2.6 4.3 0.00 0.22 0.22 78 1009.8
20260510040517 76 200 2.6 4.3 0.00 0.22 0.22 78 1009.5
20260510040016 77 184 1.7 5.2 0.00 0.22 0.22 77 1009.5
20260510035517 77 162 4.3 7.0 0.00 0.22 0.22 78 1009.6
20260510035018 77 162 5.2 7.8 0.00 0.22 0.22 77 1009.5
20260510034517 77 162 6.1 7.8 0.00 0.22 0.22 76 1009.5
20260510034017 77 147 7.0 8.7 0.00 0.22 0.22 75 1009.5
20260510033518 77 141 7.8 10.4 0.00 0.22 0.22 74 1009.5
20260510033018 78 157 7.0 10.4 0.00 0.22 0.22 72 1009.4
20260510032517 78 158 5.2 7.8 0.00 0.22 0.22 70 1009.4
20260510031516 78 145 6.1 7.8 0.00 0.22 0.22 70 1009.4
20260510031017 78 135 5.2 7.8 0.00 0.22 0.22 70 1009.3
20260510030517 78 136 6.1 7.8 0.00 0.22 0.22 71 1009.3
20260510030017 78 131 5.2 7.0 0.00 0.22 0.22 71 1009.2
20260510025519 78 135 5.2 7.8 0.00 0.22 0.22 71 1009.1
20260510025017 78 123 5.2 7.8 0.00 0.22 0.22 72 1009.1
20260510024517 78 121 5.2 7.0 0.00 0.22 0.22 73 1009.0
20260510024018 79 133 5.2 7.0 0.00 0.22 0.22 73 1008.8
20260510023517 79 119 4.3 6.1 0.00 0.22 0.22 71 1008.7
20260510023017 79 125 4.3 7.0 0.00 0.22 0.22 70 1008.6
20260510022518 79 129 5.2 7.0 0.00 0.22 0.22 70 1008.6
20260510022017 80 143 5.2 7.8 0.00 0.22 0.22 69 1008.5
20260510021018 80 132 4.3 6.1 0.00 0.22 0.22 65 1008.4
20260510020517 81 146 5.2 7.8 0.00 0.22 0.22 63 1008.2
20260510020017 81 157 6.1 8.7 0.00 0.22 0.22 63 1008.1
20260510015516 81 150 6.1 10.4 0.00 0.22 0.22 62 1008.0
20260510015017 81 140 7.0 10.4 0.00 0.22 0.22 61 1007.8
20260510014516 81 155 7.0 8.7 0.00 0.22 0.22 61 1007.7
20260510013018 82 160 6.1 11.3 0.00 0.22 0.22 60 1007.4
20260510012516 83 161 5.2 11.3 0.00 0.22 0.22 59 1007.4
20260510012017 83 161 7.0 12.2 0.00 0.22 0.22 58 1007.3
20260510011516 83 168 6.1 12.2 0.00 0.22 0.22 58 1007.3
20260510010518 84 154 8.7 13.9 0.00 0.22 0.22 58 1007.3
20260510010017 84 163 7.8 12.2 0.00 0.22 0.22 60 1007.3
20260510005518 84 167 7.0 12.2 0.00 0.22 0.22 60 1007.2
20260510005018 85 158 7.8 12.2 0.00 0.22 0.22 59 1007.2
20260510004517 85 154 7.8 13.0 0.00 0.22 0.22 59 1007.3
20260510004019 85 151 9.6 13.9 0.00 0.22 0.22 59 1007.4
20260510003518 85 152 10.4 13.9 0.00 0.22 0.22 57 1007.3
20260510003018 86 148 10.4 13.9 0.00 0.22 0.22 56 1007.2
20260510002517 86 155 9.6 14.8 0.00 0.22 0.22 56 1007.2
20260510002017 86 153 10.4 17.4 0.00 0.22 0.22 55 1007.2
20260510001517 87 157 10.4 13.9 0.00 0.22 0.22 54 1007.1
20260510001018 87 165 7.8 14.8 0.00 0.22 0.22 53 1007.1
20260510000518 87 173 7.8 15.6 0.00 0.22 0.22 53 1007.2
20260510000018 87 158 10.4 14.8 0.00 0.22 0.22 52 1007.2
20260509235520 88 162 7.8 15.6 0.00 0.22 0.22 52 1007.1
20260509235018 88 152 9.6 14.8 0.00 0.22 0.22 51 1007.0
20260509234517 88 158 8.7 13.9 0.00 0.22 0.22 53 1007.0
20260509234017 88 148 10.4 15.6 0.00 0.22 0.22 51 1007.0
20260509233518 88 160 11.3 15.6 0.00 0.22 0.22 50 1007.0
20260509233018 89 156 11.3 14.8 0.00 0.22 0.22 49 1007.1
20260509232018 90 147 8.7 15.6 0.00 0.22 0.22 48 1007.0
20260509231516 91 151 9.6 14.8 0.00 0.22 0.22 46 1007.0
20260509231018 91 144 7.8 11.3 0.00 0.22 0.22 44 1007.0
20260509230517 92 167 5.2 10.4 0.00 0.22 0.22 43 1007.0
20260509225517 92 191 4.3 7.8 0.00 0.22 0.22 42 1007.0
20260509224517 92 203 7.8 12.2 0.00 0.22 0.22 41 1007.0
20260509224017 92 195 5.2 10.4 0.00 0.22 0.22 41 1007.1
20260509223517 92 166 6.1 7.8 0.00 0.22 0.22 42 1007.0
20260509223017 92 180 3.5 8.7 0.00 0.22 0.22 42 1007.0
20260509222517 92 186 3.5 7.0 0.00 0.22 0.22 43 1007.0
20260509222017 92 192 5.2 8.7 0.00 0.22 0.22 42 1006.9
20260509221017 92 215 5.2 8.7 0.00 0.22 0.22 41 1007.0
20260509220517 92 161 5.2 10.4 0.00 0.22 0.22 42 1007.0
20260509220016 92 201 7.0 10.4 0.00 0.22 0.22 40 1007.0
20260509215517 92 209 4.3 7.8 0.00 0.22 0.22 42 1006.9
20260509215017 92 216 2.6 6.1 0.00 0.22 0.22 41 1006.9
20260509214516 92 161 3.5 6.1 0.00 0.22 0.22 41 1006.9
20260509214017 92 221 5.2 7.8 0.00 0.22 0.22 39 1007.0
20260509213517 92 198 2.6 7.0 0.00 0.22 0.22 42 1006.9
20260509213018 92 203 5.2 7.8 0.00 0.22 0.22 41 1007.0
20260509212516 92 181 3.5 7.8 0.00 0.22 0.22 42 1007.0
20260509212017 91 202 4.3 7.8 0.00 0.22 0.22 43 1007.0
20260509211516 91 194 2.6 7.8 0.00 0.22 0.22 43 1007.0
20260509211017 91 193 2.6 7.0 0.00 0.22 0.22 43 1007.0
20260509210517 91 224 5.2 8.7 0.00 0.22 0.22 41 1007.1
20260509210016 91 198 5.2 7.8 0.00 0.22 0.22 40 1007.1
20260509205517 91 202 3.5 7.0 0.00 0.22 0.22 44 1007.1
20260509205017 91 189 4.3 7.0 0.00 0.22 0.22 44 1007.2
20260509204018 91 257 3.5 8.7 0.00 0.22 0.22 42 1007.3
20260509203516 91 194 4.3 7.8 0.00 0.22 0.22 43 1007.4
20260509203017 91 215 2.6 7.8 0.00 0.22 0.22 43 1007.4
20260509202516 90 244 1.7 7.0 0.00 0.22 0.22 44 1007.5
20260509202017 90 195 5.2 8.7 0.00 0.22 0.22 43 1007.6
20260509201517 91 162 5.2 7.8 0.00 0.22 0.22 44 1007.6
20260509200517 90 177 5.2 7.8 0.00 0.22 0.22 46 1007.6
20260509200017 90 188 6.1 10.4 0.00 0.22 0.22 45 1007.7
20260509195517 90 233 5.2 8.7 0.00 0.22 0.22 45 1007.7
20260509195018 90 221 5.2 7.8 0.00 0.22 0.22 46 1007.8
20260509194517 90 218 3.5 7.8 0.00 0.22 0.22 46 1007.9
20260509194017 90 239 3.5 8.7 0.00 0.22 0.22 45 1007.8
20260509193016 90 203 4.3 7.8 0.00 0.22 0.22 45 1007.9
20260509192516 90 169 5.2 7.8 0.00 0.22 0.22 45 1008.0
20260509192018 89 335 2.6 6.1 0.00 0.22 0.22 43 1008.0
20260509191516 89 221 2.6 7.8 0.00 0.22 0.22 46 1008.0
20260509191018 89 279 5.2 8.7 0.00 0.22 0.22 46 1008.2
20260509190517 89 230 5.2 8.7 0.00 0.22 0.22 48 1008.2
20260509190016 89 354 2.6 7.0 0.00 0.22 0.22 48 1008.3
20260509184518 88 239 4.3 7.8 0.00 0.22 0.22 50 1008.6
20260509184018 88 220 1.7 7.0 0.00 0.22 0.22 52 1008.7
20260509183518 87 242 1.7 7.8 0.00 0.22 0.22 54 1008.7
20260509183018 87 224 6.1 7.8 0.00 0.22 0.22 52 1008.8
20260509182519 87 248 3.5 7.8 0.00 0.22 0.22 53 1008.9
20260509182018 87 251 7.0 8.7 0.00 0.22 0.22 51 1008.9
20260509181518 87 286 3.5 7.0 0.00 0.22 0.22 55 1008.9
20260509180516 86 287 1.7 5.2 0.00 0.22 0.22 56 1009.1
20260509180016 86 241 4.3 7.8 0.00 0.22 0.22 56 1009.1
20260509175516 86 304 5.2 10.4 0.00 0.22 0.22 58 1009.1
20260509175017 85 250 4.3 7.8 0.00 0.22 0.22 58 1009.1
20260509174517 85 250 7.8 11.3 0.00 0.22 0.22 58 1009.1
20260509174016 85 240 5.2 8.7 0.00 0.22 0.22 60 1008.9
20260509173517 84 241 6.1 10.4 0.00 0.22 0.22 61 1008.9
20260509173016 84 246 5.2 10.4 0.00 0.22 0.22 61 1008.9
20260509172517 84 231 6.1 11.3 0.00 0.22 0.22 63 1009.1
20260509172017 83 250 7.0 11.3 0.00 0.22 0.22 63 1009.1
20260509171516 83 246 6.1 11.3 0.00 0.22 0.22 62 1009.0
20260509171018 83 224 7.0 11.3 0.00 0.22 0.22 64 1009.0
20260509170519 83 250 7.0 10.4 0.00 0.22 0.22 64 1009.0
20260509170017 82 229 5.2 8.7 0.00 0.22 0.22 66 1009.0
20260509165516 82 256 6.1 10.4 0.00 0.22 0.22 66 1009.1
20260509165017 82 236 5.2 7.0 0.00 0.22 0.22 68 1009.0
20260509164517 82 255 6.1 10.4 0.00 0.22 0.22 68 1009.2